This demonstration page uses our WeatherBlox Daily Observations layout. Learn more.

38.89511, -77.03637

Hourly Observations for March 13, 2015

Temp ( °F °C ) Dew Point ( °F °C ) Humidity (%) Winds ( mph kmh ) Pressure ( in mb ) Visibility ( mi km ) Precip ( " mm )
12:52 am 00:52 Mostly Cloudy 45 7.2 22 -5.6 40 40 Calm 30.58 1036 10 16.0934 0 0
1:52 am 01:52 Mostly Cloudy 45 7.2 23 -5 42 42 Calm 30.58 1036 10 16.0934 0 0
2:52 am 02:52 Mostly Cloudy 41 5 30 -1.1 65 65 Calm 30.6 1036 10 16.0934 0 0
3:52 am 03:52 Partly Cloudy 40 4.4 30 -1.1 68 68 Calm 30.6 1036 10 16.0934 0 0
4:52 am 04:52 Mostly Cloudy 40 4.4 27 -2.8 60 60 NE 3 6 30.61 1037 10 16.0934 0 0
5:52 am 05:52 Mostly Clear 39 3.9 23 -5 53 53 ENE 6 9 30.6 1036 10 16.0934 0 0
6:52 am 06:52 Mostly Cloudy 38 3.3 23 -5 55 55 Calm 30.62 1037 10 16.0934 0 0
7:52 am 07:52 Mostly Cloudy 38 3.3 21 -6.1 51 51 Calm 30.65 1038 10 16.0934 0 0
8:52 am 08:52 Mostly Cloudy 41 5 21 -6.1 45 45 Calm 30.63 1037 10 16.0934 0 0
9:52 am 09:52 Mostly Cloudy 44 6.7 10 -12.2 25 25 ESE 5 7 30.63 1037 10 16.0934 0 0
10:52 am 10:52 Mostly Cloudy 45 7.2 11 -11.7 25 25 SE 3 6 30.62 1037 10 16.0934 0 0
11:52 am 11:52 Mostly Cloudy 47 8.3 13 -10.6 25 25 S 5 7 30.6 1036 10 16.0934 0 0
12:52 pm 12:52 Mostly Cloudy 51 10.6 14 -10 23 23 S 6 9 30.57 1035 10 16.0934 0 0
1:52 pm 13:52 Mostly Cloudy 53 11.7 16 -8.9 23 23 S 8 13 30.53 1034 10 16.0934 0 0
2:52 pm 14:52 Mostly Cloudy 53 11.7 15 -9.4 22 22 S 7 11 30.5 1033 10 16.0934 0 0
3:21 pm 15:21 Cloudy 54 12 16 -9 22 22 SSW 7 11 30.48 1032 10 16.0934 0 0
3:52 pm 15:52 Cloudy 54 12.2 20 -6.7 26 26 S 8 13 30.46 1032 10 16.0934 0 0
4:52 pm 16:52 Cloudy 55 12.8 19 -7.2 24 24 S 10 17 30.43 1031 10 16.0934 0 0
5:52 pm 17:52 Cloudy 52 11.1 22 -5.6 31 31 ESE 7 11 30.42 1030 10 16.0934 0 0
6:52 pm 18:52 Cloudy 52 11.1 22 -5.6 31 31 SE 8 13 30.42 1030 10 16.0934 0 0
7:52 pm 19:52 Cloudy 51 10.6 22 -5.6 32 32 SE 6 9 30.42 1030 10 16.0934 0 0
8:52 pm 20:52 Cloudy 51 10.6 20 -6.7 29 29 SSE 6 9 30.42 1030 10 16.0934 0 0
9:52 pm 21:52 Cloudy 48 8.9 30 -1.1 50 50 S 7 11 30.4 1030 10 16.0934 0 0.0254
10:52 pm 22:52 Cloudy 49 9.4 34 1.1 56 56 SW 10 17 30.39 1029 10 16.0934 0 0
11:35 pm 23:35 Cloudy with Light Rain 46 8 37 3 71 71 SSW 5 7 30.36 1028 10 16.0934 0 0.0254
11:44 pm 23:44 Cloudy with Light Rain 45 7 39 4 81 81 SSW 6 9 30.36 1028 5 8.0467 0 0
11:52 pm 23:52 Cloudy with Light Rain 45 7.2 40 4.4 83 83 S 5 7 30.35 1028 4 6.43736 0 0.0254

Powered by AerisWeather